Tracking 35275 objects as of 8-Sep-2026
HD Live streaming from Space Station
objects crossing your sky now

SPACEBEE-114


SPACEBEE-114 is no longer on orbit


NORAD ID: 52010
Int'l Code: 2022-026C
Launch date: March 15, 2022
Source: United States (US)
Launch site: Kodiak Island, Alaska (KODAK)
Decay date: 2024-02-27
Your satellite tracking list
Your tracking list is empty




NASA's NSSDC Master Catalog

Two Line Element Set (TLE):
1 52010U 22026C   24055.72854928  .12627334  26591-5  10919-2 0  9999
2 52010  97.4564  75.3440 0009183 223.6211 136.4363 16.39339589108805
Source of the keplerian elements: AFSPC